CORVUS BC1

Last updated on Sun Dec 14 2025 00:03:50 GMT+0000 (Coordinated Universal Time)

1 42847U 17042Y 25347.19073509 .00006524 00000+0 46329-3 0 9997 2 42847 97.3885 151.8754 0012618 13.0018 347.1532 15.04973011459104
UTC large
Height (km)
Speed (km/s)
/
Latitude / Longitude
Inclination (degrees)
Orbital Period (minutes)
Azimuth
Elevation
Range (km)
Doppler Factor

Next 0 passes for location: London (51.5072 / 0.1276)

Sorry there are no passes over London.